Location: ??????
(56.0120°N, 39.1740°E)
Time: 10:46:34
(UTC+00:00)

H-2A R/B - Pass Details

Date: 14 April 2026
Orbit: 478 x 548 km, 98.3° (Epoch: 19 May)

Event Time Altitude Azimuth Distance (km) Brightness Sun altitude
Exits shadow 23:13:37 11° 128° (SE) 1,644 4.6 -20.4°
Maximum altitude 23:16:46 33° 64° (ENE) 854 3.8 -20.2°
Drops below altitude 10° 23:20:03 10° 359° (N) 1,696 5.6 -20.0°
Sets 23:22:14 0° 350° (N) 2,573 6.5 -19.8°
